Weather History for Kenosha, WI

Change the Weather History Date:

Tuesday, August 5, 2014

  Actual Average Record
Temperature  
Mean Temperature 70 °F -  
Max Temperature 79 °F 77 °F 91 °F (1955)
Min Temperature 57 °F 60 °F 48 °F (1972)
Cooling Degree Days 5    
Growing Degree Days 20 (Base 50)    
Moisture  
Dew Point 63 °F    
Average Humidity 90    
Maximum Humidity 100    
Minimum Humidity 60    
Precipitation  
Precipitation 0.00 in - - ()
Sea Level Pressure  
Sea Level Pressure 30.05 in    
Wind  
Wind Speed 3 mph (NE)    
Max Wind Speed 10 mph    
Max Gust Speed -    
Visibility 6 miles    
Events Fog    
Averages and records for this station are not official NWS values.
T = Trace of Precipitation, MM = Missing Value Source: NWS Daily Summary

Daily Weather History Graph

Daily Weather History Graph

Search for Another Location

Airport:

Trip Planner

Search our weather history database for the weather conditions in past years. The results will help you decide how hot, cold, wet, or windy it might be!

Date:

Astronomy

Aug. 05, 2014 Rise Set
Actual Time 5:47 AM CDT 8:06 PM CDT
Civil Twilight 5:16 AM CDT 8:38 PM CDT
Nautical Twilight 4:37 AM CDT 9:17 PM CDT
Astronomical Twilight 3:53 AM CDT 10:00 PM CDT
Moon 3:22 PM CDT (8/5) 12:35 AM CDT (8/5)
Length of Visible Light 15h 21m
Length of Day
14h 19m
Waxing Gibbous, 68% of the Moon is Illuminated
Aug 5
Waxing Gibbous
Aug 10
Full
Aug 17
Last Quarter
Aug 25
New
Sep 2
First Quarter

Hourly Weather History & Observations

Time (CDT) Temp. Dew Point Humidity Pressure Visibility Wind Dir Wind Speed Gust Speed Precip Events Conditions
12:21 AM 64.0 °F 63.0 °F 96% 30.07 in 3.0 mi ESE 3.5 mph - N/A   Mostly Cloudy
12:30 AM 64.9 °F 64.0 °F 97% 30.07 in 5.0 mi SE 4.6 mph - N/A   Mostly Cloudy
12:53 AM 64.0 °F 63.0 °F 96% 30.04 in 2.0 mi ENE 4.6 mph - N/A   Overcast
1:03 AM 63.0 °F 63.0 °F 100% 30.05 in 1.5 mi ENE 5.8 mph - N/A   Scattered Clouds
1:33 AM 63.0 °F 62.1 °F 97% 30.04 in 0.2 mi ENE 3.5 mph - N/A Fog Fog
1:41 AM 62.1 °F 62.1 °F 100% 30.04 in 0.2 mi ENE 3.5 mph - N/A Fog Fog
1:53 AM 62.1 °F 62.1 °F 100% 30.04 in 0.2 mi Calm Calm - N/A Fog Fog
1:59 AM 62.1 °F 62.1 °F 100% 30.04 in 0.8 mi East 3.5 mph - N/A   Mostly Cloudy
2:08 AM 63.0 °F 62.1 °F 97% 30.03 in 1.5 mi Calm Calm - N/A   Mostly Cloudy
2:31 AM 64.0 °F 63.0 °F 96% 30.04 in 2.5 mi North 4.6 mph - N/A   Mostly Cloudy
2:51 AM 62.6 °F 62.6 °F 100% 30.03 in 1.5 mi Calm Calm - N/A   Scattered Clouds
2:53 AM 63.0 °F 63.0 °F 100% 30.03 in 1.5 mi NNE 3.5 mph - N/A   Partly Cloudy
3:09 AM 63.0 °F 63.0 °F 100% 30.03 in 2.5 mi Calm Calm - N/A   Scattered Clouds
3:18 AM 63.0 °F 63.0 °F 100% 30.03 in 1.0 mi Calm Calm - N/A   Mostly Cloudy
3:42 AM 63.0 °F 63.0 °F 100% 30.03 in 0.8 mi Calm Calm - N/A   Overcast
3:49 AM 62.6 °F 62.6 °F 100% 30.03 in 1.8 mi Calm Calm - N/A   Overcast
3:53 AM 63.0 °F 63.0 °F 100% 30.03 in 2.0 mi Calm Calm - N/A   Overcast
4:19 AM 64.0 °F 63.0 °F 96% 30.04 in 3.0 mi Calm Calm - N/A   Overcast
4:53 AM 64.0 °F 64.0 °F 100% 30.04 in 4.0 mi Calm Calm - N/A   Overcast
5:06 AM 64.0 °F 64.0 °F 100% 30.05 in 4.0 mi NNE 3.5 mph - N/A   Overcast
5:24 AM 64.0 °F 64.0 °F 100% 30.05 in 4.0 mi NE 3.5 mph - N/A   Overcast
5:31 AM 64.0 °F 64.0 °F 100% 30.05 in 4.0 mi Calm Calm - N/A   Overcast
5:49 AM 64.4 °F 64.4 °F 100% 30.05 in 4.0 mi NE 3.5 mph - N/A   Overcast
5:53 AM 64.0 °F 64.0 °F 100% 30.04 in 4.0 mi NE 3.5 mph - N/A   Overcast
6:06 AM 64.9 °F 64.0 °F 97% 30.05 in 4.0 mi NE 3.5 mph - N/A   Overcast
6:39 AM 64.9 °F 64.0 °F 97% 30.06 in 4.0 mi NE 3.5 mph - N/A   Overcast
6:53 AM 64.9 °F 64.0 °F 97% 30.06 in 6.0 mi Calm Calm - N/A   Overcast
7:53 AM 66.0 °F 64.0 °F 93% 30.07 in 10.0 mi NNE 3.5 mph - N/A   Overcast
8:23 AM 66.9 °F 64.0 °F 90% 30.08 in 10.0 mi Calm Calm - N/A   Overcast
8:53 AM 68.0 °F 64.0 °F 87% 30.07 in 10.0 mi NNE 3.5 mph - N/A   Overcast
9:53 AM 72.0 °F 64.9 °F 78% 30.06 in 10.0 mi ENE 5.8 mph - N/A   Scattered Clouds
10:53 AM 73.0 °F 64.9 °F 76% 30.07 in 10.0 mi NE 5.8 mph - N/A   Mostly Cloudy
10:54 AM 73.0 °F 64.9 °F 76% 30.08 in 10.0 mi NE 5.8 mph - N/A   Mostly Cloudy
11:53 AM 73.9 °F 63.0 °F 68% 30.07 in 10.0 mi Variable 6.9 mph - N/A   Partly Cloudy
12:53 PM 75.0 °F 63.0 °F 66% 30.06 in 10.0 mi ENE 6.9 mph - N/A   Clear
1:53 PM 77.0 °F 63.0 °F 62% 30.06 in 10.0 mi Variable 4.6 mph - N/A   Partly Cloudy
2:53 PM 78.1 °F 64.0 °F 62% 30.04 in 10.0 mi ENE 8.1 mph - N/A   Partly Cloudy
3:53 PM 75.9 °F 61.0 °F 60% 30.04 in 10.0 mi East 9.2 mph - N/A   Partly Cloudy
4:53 PM 77.0 °F 64.0 °F 64% 30.04 in 10.0 mi East 10.4 mph - N/A   Clear
5:53 PM 73.9 °F 62.1 °F 66% 30.04 in 10.0 mi NE 9.2 mph - N/A   Clear
6:53 PM 69.1 °F 62.1 °F 78% 30.05 in 10.0 mi NE 9.2 mph - N/A   Clear
7:53 PM 66.9 °F 62.1 °F 84% 30.06 in 10.0 mi NE 6.9 mph - N/A   Clear
8:53 PM 64.0 °F 61.0 °F 90% 30.06 in 10.0 mi NNE 5.8 mph - N/A   Clear
9:53 PM 63.0 °F 60.1 °F 90% 30.07 in 10.0 mi Calm Calm - N/A   Clear
11:53 PM 57.9 °F 57.0 °F 97% 30.06 in 10.0 mi West 3.5 mph - N/A   Clear